FW6620 Weather Reports


time (UTC)temp
C
wind
direction
speed
KPH
gust
KPH
rain 1hr
cm
rain 24hr
cm
rain mn
cm
humidity
%
barometer
mb
20260904130549 26 0 0.0 3.2 0.00 0.00 0.00 88 1015.2
20260904130106 26 0 0.0 3.2 0.00 0.00 0.00 88 1015.1
20260904125546 26 0 0.0 3.2 0.00 0.00 0.00 88 1015.1
20260904125049 26 63 0.0 3.2 0.00 0.00 0.00 88 1014.9
20260904124555 26 0 0.0 4.8 0.00 0.00 0.00 88 1014.9
20260904124046 26 0 0.0 4.8 0.00 0.00 0.00 88 1014.9
20260904123546 26 0 0.0 4.8 0.00 0.00 0.00 88 1014.7
20260904123106 26 64 0.0 4.8 0.00 0.00 0.00 88 1014.6
20260904122546 26 0 0.0 3.2 0.00 0.00 0.00 88 1014.6
20260904122046 26 0 0.0 3.2 0.00 0.00 0.00 88 1014.5
20260904121600 26 0 0.0 4.8 0.00 0.00 0.00 88 1014.5
20260904121045 26 0 0.0 6.4 0.00 0.00 0.00 88 1014.4
20260904120545 26 0 0.0 6.4 0.00 0.00 0.00 88 1014.3
20260904120107 26 0 0.0 6.4 0.00 0.00 0.00 88 1014.2
20260904115545 26 0 0.0 4.8 0.00 0.00 0.00 88 1014.2
20260904115045 27 0 1.6 4.8 0.00 0.00 0.00 88 1014.2
20260904114557 27 69 0.0 6.4 0.00 0.00 0.00 87 1014.1
20260904114045 27 0 0.0 6.4 0.00 0.00 0.00 87 1014.1
20260904113547 27 71 0.0 6.4 0.00 0.00 0.00 87 1014.1
20260904113057 27 73 0.0 6.4 0.00 0.00 0.00 87 1014.0
20260904112546 27 64 0.0 6.4 0.00 0.00 0.00 87 1014.1
20260904112050 27 0 0.0 6.4 0.00 0.00 0.00 87 1014.0
20260904111601 27 0 0.0 6.4 0.00 0.00 0.00 87 1013.9
20260904111047 27 0 0.0 4.8 0.00 0.00 0.00 87 1013.9
20260904110546 27 0 0.0 6.4 0.00 0.00 0.00 87 1013.9
20260904110104 27 0 0.0 6.4 0.00 0.00 0.00 87 1014.0
20260904105545 27 76 1.6 6.4 0.00 0.00 0.00 87 1013.8
20260904105045 27 0 0.0 6.4 0.00 0.00 0.00 87 1013.8
20260904104557 27 55 1.6 6.4 0.00 0.00 0.00 87 1013.7
20260904104046 27 0 0.0 3.2 0.00 0.00 0.00 87 1013.7
20260904103550 27 0 0.0 3.2 0.00 0.00 0.00 87 1013.8
20260904103105 27 0 0.0 3.2 0.00 0.00 0.00 87 1013.8
20260904102546 27 0 0.0 6.4 0.00 0.00 0.00 87 1013.7
20260904102046 27 0 0.0 9.7 0.00 0.00 0.00 87 1013.7
20260904101603 27 67 1.6 9.7 0.00 0.00 0.00 87 1013.6
20260904101046 27 52 0.0 6.4 0.00 0.00 0.00 87 1013.6
20260904100549 27 0 0.0 6.4 0.00 0.00 0.00 87 1013.6
20260904100057 27 0 0.0 9.7 0.00 0.00 0.00 87 1013.6
20260904095547 27 0 0.0 9.7 0.00 0.00 0.00 86 1013.6
20260904095047 27 0 0.0 3.2 0.00 0.00 0.00 86 1013.6
20260904094559 27 64 0.0 6.4 0.00 0.00 0.00 86 1013.5
20260904094046 27 0 0.0 6.4 0.00 0.00 0.00 86 1013.5
20260904093549 27 64 0.0 4.8 0.00 0.00 0.00 86 1013.5
20260904093105 27 66 0.0 3.2 0.00 0.00 0.00 86 1013.5
20260904092545 27 68 0.0 3.2 0.00 0.00 0.00 86 1013.4
20260904092047 27 0 0.0 4.8 0.00 0.00 0.00 86 1013.5
20260904091559 27 0 0.0 4.8 0.00 0.00 0.00 86 1013.5
20260904091045 27 68 0.0 4.8 0.00 0.00 0.00 86 1013.4
20260904090545 27 85 0.0 4.8 0.00 0.00 0.00 86 1013.4
20260904090058 27 67 0.0 3.2 0.00 0.00 0.00 86 1013.4
20260904085545 27 0 0.0 3.2 0.00 0.00 0.00 86 1013.4
20260904085045 27 0 0.0 4.8 0.00 0.00 0.00 86 1013.4
20260904084559 27 67 0.0 9.7 0.00 0.00 0.00 86 1013.5
20260904084047 27 66 0.0 9.7 0.00 0.00 0.00 86 1013.4
20260904083549 27 54 1.6 9.7 0.00 0.00 0.00 85 1013.4
20260904083104 27 0 0.0 8.0 0.00 0.00 0.00 86 1013.5
20260904082546 27 0 0.0 8.0 0.00 0.00 0.00 85 1013.5
20260904082046 27 0 0.0 4.8 0.00 0.00 0.00 85 1013.4
20260904081559 27 87 1.6 4.8 0.00 0.00 0.00 85 1013.5
20260904081045 27 0 0.0 6.4 0.00 0.00 0.00 85 1013.5
20260904080547 27 0 0.0 11.3 0.00 0.00 0.00 85 1013.4
20260904080116 27 61 0.0 11.3 0.00 0.00 0.00 85 1013.5
20260904075546 27 0 1.6 11.3 0.00 0.00 0.00 85 1013.5
20260904075046 27 0 1.6 9.7 0.00 0.00 0.00 85 1013.4
20260904074553 27 0 0.0 14.5 0.00 0.00 0.00 85 1013.5
20260904074050 27 0 1.6 14.5 0.00 0.00 0.00 84 1013.6
20260904073546 27 0 1.6 6.4 0.00 0.00 0.00 84 1013.7
20260904073111 27 0 0.0 6.4 0.00 0.00 0.00 84 1013.7
20260904072545 27 0 0.0 6.4 0.00 0.00 0.00 84 1013.7
20260904072047 27 0 0.0 6.4 0.00 0.00 0.00 84 1013.8
20260904071602 27 0 0.0 11.3 0.00 0.00 0.00 84 1013.8
20260904071045 27 0 1.6 11.3 0.00 0.00 0.00 83 1013.8
20260904070547 27 52 1.6 9.7 0.00 0.00 0.00 83 1013.8
20260904065546 27 0 0.0 6.4 0.00 0.00 0.00 83 1013.9
20260904065045 27 0 1.6 9.7 0.00 0.00 0.00 82 1014.0
20260904064554 27 0 1.6 9.7 0.00 0.00 0.00 82 1013.9
20260904064045 27 60 1.6 9.7 0.00 0.00 0.00 82 1014.0
20260904063546 27 66 0.0 6.4 0.00 0.00 0.00 82 1013.9
20260904063115 27 0 1.6 6.4 0.00 0.00 0.00 82 1013.8
20260904062545 27 66 1.6 6.4 0.00 0.00 0.00 81 1013.8
20260904062047 27 0 0.0 9.7 0.00 0.00 0.00 81 1013.8
20260904061558 27 65 1.6 9.7 0.00 0.00 0.00 81 1013.9
20260904061049 27 64 0.0 9.7 0.00 0.00 0.00 81 1013.8
20260904060548 27 0 1.6 9.7 0.00 0.00 0.00 81 1013.9
20260904055548 27 56 0.0 9.7 0.00 0.00 0.00 81 1013.9
20260904055045 27 0 0.0 9.7 0.00 0.00 0.00 80 1013.9
20260904054555 27 61 0.0 6.4 0.00 0.00 0.00 80 1013.9
20260904054046 27 68 0.0 6.4 0.00 0.00 0.00 80 1014.0
20260904053546 27 0 0.0 11.3 0.00 0.00 0.00 80 1013.9
20260904053130 27 61 0.0 11.3 0.00 0.00 0.00 80 1013.8
20260904052546 27 63 0.0 6.4 0.00 0.00 0.00 80 1013.8
20260904052046 27 64 0.0 6.4 0.00 0.00 0.00 80 1013.8
20260904051558 27 62 1.6 6.4 0.00 0.00 0.00 80 1013.7
20260904051045 27 0 0.0 11.3 0.00 0.00 0.00 80 1013.8
20260904050545 27 58 1.6 11.3 0.00 0.00 0.00 80 1013.6
20260904050058 27 62 0.0 6.4 0.00 0.00 0.00 80 1013.6
20260904045543 27 60 0.0 9.7 0.00 0.00 0.00 80 1013.7
20260904045045 27 67 0.0 9.7 0.00 0.00 0.00 79 1013.6
20260904044605 27 78 1.6 6.4 0.00 0.00 0.00 79 1013.6
20260904044045 27 0 1.6 9.7 0.00 0.00 0.00 79 1013.6
20260904043545 27 0 1.6 9.7 0.00 0.00 0.00 79 1013.6
20260904043103 27 0 0.0 9.7 0.00 0.00 0.00 79 1013.6
20260904042546 27 0 0.0 9.7 0.00 0.00 0.00 79 1013.6
20260904042049 28 64 0.0 6.4 0.00 0.00 0.00 79 1013.6
20260904041559 28 0 0.0 9.7 0.00 0.00 0.00 78 1013.6
20260904041045 28 0 0.0 9.7 0.00 0.00 0.00 79 1013.6
20260904040545 28 70 0.0 9.7 0.00 0.00 0.00 78 1013.5
20260904040100 28 0 0.0 6.4 0.00 0.00 0.00 78 1013.6
20260904035546 28 0 0.0 6.4 0.00 0.00 0.00 78 1013.5
20260904035045 28 57 0.0 6.4 0.00 0.00 0.00 78 1013.4
20260904034558 28 69 0.0 9.7 0.00 0.00 0.00 78 1013.5
20260904034045 28 0 1.6 9.7 0.00 0.00 0.00 78 1013.5
20260904033545 28 0 0.0 6.4 0.00 0.00 0.00 78 1013.4
20260904033100 28 0 0.0 4.8 0.00 0.00 0.00 77 1013.5
20260904032544 28 67 0.0 4.8 0.00 0.00 0.00 77 1013.4
20260904032049 28 0 0.0 4.8 0.00 0.00 0.00 77 1013.3
20260904031557 28 0 0.0 6.4 0.00 0.00 0.00 77 1013.3
20260904031047 28 0 0.0 6.4 0.00 0.00 0.00 76 1013.3
20260904030547 28 60 1.6 6.4 0.00 0.00 0.00 76 1013.3
20260904025548 28 0 0.0 6.4 0.00 0.00 0.00 75 1013.2
20260904025047 28 0 1.6 6.4 0.00 0.00 0.00 75 1013.2
20260904024601 28 0 1.6 6.4 0.00 0.00 0.00 74 1013.2
20260904024048 28 0 1.6 6.4 0.00 0.00 0.00 74 1013.0
20260904023548 28 0 0.0 3.2 0.00 0.00 0.00 73 1012.9
20260904023059 29 81 0.0 3.2 0.00 0.00 0.00 73 1013.0
20260904022548 29 0 0.0 9.7 0.00 0.00 0.00 73 1012.9
20260904022048 29 78 0.0 9.7 0.00 0.00 0.00 72 1012.9
20260904021610 29 84 1.6 4.8 0.00 0.00 0.00 72 1012.8
20260904021047 29 84 0.0 4.8 0.00 0.00 0.00 71 1012.7
20260904020547 29 83 0.0 4.8 0.00 0.00 0.00 71 1012.6
20260904020058 29 83 0.0 9.7 0.00 0.00 0.00 70 1012.6
20260904015547 30 0 1.6 9.7 0.00 0.00 0.00 70 1012.5
20260904015049 30 0 0.0 6.4 0.00 0.00 0.00 70 1012.4
20260904014604 30 63 0.0 9.7 0.00 0.00 0.00 70 1012.3
20260904014047 30 58 0.0 9.7 0.00 0.00 0.00 69 1012.2
20260904013546 30 0 0.0 6.4 0.00 0.00 0.00 69 1012.1
20260904013121 30 0 0.0 9.7 0.00 0.00 0.00 69 1012.0
20260904012549 30 0 0.0 9.7 0.00 0.00 0.00 68 1011.9
20260904012048 30 64 0.0 4.8 0.00 0.00 0.00 68 1011.9
20260904011642 30 0 0.0 4.8 0.00 0.00 0.00 68 1011.9
20260904011047 30 0 0.0 4.8 0.00 0.00 0.00 68 1011.9
20260904010547 30 64 0.0 6.4 0.00 0.00 0.00 68 1011.9
20260904010057 30 0 0.0 6.4 0.00 0.00 0.00 67 1012.0
20260904005550 30 108 0.0 6.4 0.00 0.00 0.00 67 1011.9
20260904005047 31 74 1.6 6.4 0.00 0.00 0.00 66 1011.9
20260904004553 31 74 1.6 4.8 0.00 0.00 0.00 66 1012.0
20260904004047 31 0 0.0 4.8 0.00 0.00 0.00 67 1012.0
20260904003546 31 78 1.6 4.8 0.00 0.00 0.00 66 1012.0
20260904003100 31 0 0.0 11.3 0.00 0.00 0.00 66 1012.0
20260904002547 31 68 0.0 11.3 0.00 0.00 0.00 65 1011.9
20260904002047 31 78 0.0 9.7 0.00 0.00 0.00 65 1012.0
20260904001559 31 85 3.2 11.3 0.00 0.00 0.00 65 1011.9
20260904001046 31 0 0.0 11.3 0.00 0.00 0.00 65 1011.8
20260904000547 31 65 1.6 14.5 0.00 0.00 0.00 64 1011.8
20260904000056 32 64 3.2 14.5 0.00 0.00 0.00 64 1011.8
20260903235548 32 66 0.0 12.9 0.00 0.00 0.00 64 1011.7
20260903235047 32 70 3.2 12.9 0.00 0.00 0.00 63 1011.8
20260903234604 32 53 1.6 11.3 0.00 0.00 0.00 63 1011.7
20260903234047 32 47 0.0 6.4 0.00 0.00 0.00 64 1011.8
20260903233547 32 0 1.6 9.7 0.00 0.00 0.00 65 1011.6
20260903233100 32 120 1.6 9.7 0.00 0.00 0.00 64 1011.4
20260903232546 32 66 0.0 9.7 0.00 0.00 0.00 65 1011.4
20260903232047 32 64 1.6 14.5 0.00 0.00 0.00 65 1011.5
20260903231557 33 51 1.6 14.5 0.00 0.00 0.00 64 1011.4
20260903231046 33 77 1.6 9.7 0.00 0.00 0.00 63 1011.4
20260903230552 33 74 1.6 12.9 0.00 0.00 0.00 63 1011.4
20260903230057 33 0 1.6 12.9 0.00 0.00 0.00 62 1011.3
20260903225547 34 166 3.2 12.9 0.00 0.00 0.00 60 1011.3
20260903225046 34 43 1.6 8.0 0.00 0.00 0.00 58 1010.9
20260903224612 34 132 1.6 11.3 0.00 0.00 0.00 56 1011.0
20260903224049 34 213 0.0 11.3 0.00 0.00 0.00 54 1010.9
20260903223547 34 61 1.6 9.7 0.00 0.00 0.00 55 1010.9
20260903223100 34 72 3.2 11.3 0.00 0.00 0.00 54 1010.8
20260903222546 35 0 3.2 11.3 0.00 0.00 0.00 54 1010.8
20260903222047 35 64 1.6 9.7 0.00 0.00 0.00 54 1010.7
20260903221605 35 137 1.6 11.3 0.00 0.00 0.00 53 1010.7
20260903221047 35 80 3.2 11.3 0.00 0.00 0.00 53 1010.7
20260903220546 35 61 1.6 9.7 0.00 0.00 0.00 53 1010.7
20260903220105 36 73 1.6 12.9 0.00 0.00 0.00 52 1010.7
20260903215547 36 101 1.6 12.9 0.00 0.00 0.00 53 1010.7
20260903215046 36 95 0.0 4.8 0.00 0.00 0.00 52 1010.7
20260903214604 36 0 0.0 6.4 0.00 0.00 0.00 51 1010.6
20260903214050 36 81 0.0 6.4 0.00 0.00 0.00 50 1010.7
20260903213549 36 104 0.0 4.8 0.00 0.00 0.00 51 1010.7
20260903213101 36 153 0.0 3.2 0.00 0.00 0.00 50 1010.7
20260903212546 36 0 0.0 4.8 0.00 0.00 0.00 52 1010.8
20260903212047 36 0 0.0 6.4 0.00 0.00 0.00 51 1010.9
20260903211559 36 0 0.0 6.4 0.00 0.00 0.00 51 1010.8
20260903211046 36 57 0.0 6.4 0.00 0.00 0.00 50 1010.8
20260903210544 37 0 0.0 4.8 0.00 0.00 0.00 50 1010.9
20260903210141 37 0 0.0 4.8 0.00 0.00 0.00 50 1011.0
20260903205547 37 71 1.6 6.4 0.00 0.00 0.00 51 1011.0
20260903205048 37 66 0.0 6.4 0.00 0.00 0.00 52 1011.0
20260903204607 37 66 1.6 6.4 0.00 0.00 0.00 51 1011.2
20260903204047 36 54 1.6 4.8 0.00 0.00 0.00 51 1011.2
20260903203548 36 56 0.0 6.4 0.00 0.00 0.00 50 1011.3
20260903203100 37 0 0.0 6.4 0.00 0.00 0.00 51 1011.4
20260903202547 37 53 0.0 3.2 0.00 0.00 0.00 51 1011.5
20260903202048 37 53 0.0 4.8 0.00 0.00 0.00 49 1011.5
20260903201556 37 0 0.0 11.3 0.00 0.00 0.00 50 1011.6
20260903201047 37 0 1.6 11.3 0.00 0.00 0.00 48 1011.6
20260903200547 37 68 1.6 9.7 0.00 0.00 0.00 49 1011.7
20260903200117 37 0 1.6 9.7 0.00 0.00 0.00 50 1011.7
20260903195547 36 86 0.0 9.7 0.00 0.00 0.00 51 1011.7
20260903195050 36 66 0.0 9.7 0.00 0.00 0.00 51 1011.8
20260903194609 36 66 1.6 9.7 0.00 0.00 0.00 51 1011.9
20260903194046 36 60 0.0 9.7 0.00 0.00 0.00 52 1011.9
20260903193547 36 0 0.0 9.7 0.00 0.00 0.00 52 1011.9
20260903193058 36 53 1.6 6.4 0.00 0.00 0.00 52 1012.1
20260903192547 36 61 0.0 9.7 0.00 0.00 0.00 51 1012.2
20260903192046 36 0 1.6 12.9 0.00 0.00 0.00 52 1012.1
20260903191604 36 70 1.6 12.9 0.00 0.00 0.00 52 1012.2
20260903191048 36 0 3.2 6.4 0.00 0.00 0.00 54 1012.5
20260903190548 36 48 0.0 3.2 0.00 0.00 0.00 54 1012.5
20260903190058 36 0 1.6 4.8 0.00 0.00 0.00 53 1012.6
20260903185546 36 46 1.6 4.8 0.00 0.00 0.00 53 1012.7
20260903185047 36 0 1.6 9.7 0.00 0.00 0.00 53 1012.9
20260903184559 36 45 0.0 9.7 0.00 0.00 0.00 54 1012.8
20260903184050 36 43 1.6 9.7 0.00 0.00 0.00 53 1013.0
20260903183547 36 65 0.0 9.7 0.00 0.00 0.00 54 1013.1
20260903183108 36 64 1.6 9.7 0.00 0.00 0.00 55 1013.1
20260903182550 36 66 0.0 9.7 0.00 0.00 0.00 55 1013.3
20260903182047 36 0 1.6 9.7 0.00 0.00 0.00 55 1013.3
20260903181601 36 58 1.6 9.7 0.00 0.00 0.00 54 1013.4
20260903181046 36 85 1.6 9.7 0.00 0.00 0.00 56 1013.4
20260903180549 35 56 0.0 9.7 0.00 0.00 0.00 56 1013.4
20260903180058 35 0 1.6 9.7 0.00 0.00 0.00 57 1013.5
20260903175546 35 59 1.6 9.7 0.00 0.00 0.00 57 1013.5
20260903175050 35 78 0.0 6.4 0.00 0.00 0.00 59 1013.6
20260903174558 34 78 1.6 11.3 0.00 0.00 0.00 58 1013.5
20260903174047 34 54 1.6 16.1 0.00 0.00 0.00 59 1013.7
20260903173547 34 63 3.2 16.1 0.00 0.00 0.00 60 1013.7
20260903173055 34 0 1.6 11.3 0.00 0.00 0.00 60 1013.6
20260903172549 33 0 1.6 11.3 0.00 0.00 0.00 61 1013.8
20260903172047 33 0 1.6 9.7 0.00 0.00 0.00 61 1013.8
20260903171612 33 57 0.0 9.7 0.00 0.00 0.00 62 1013.9
20260903171046 33 66 0.0 9.7 0.00 0.00 0.00 63 1014.0
20260903170547 33 52 1.6 9.7 0.00 0.00 0.00 64 1014.0
20260903170059 33 0 1.6 9.7 0.00 0.00 0.00 62 1014.0
20260903165547 33 81 1.6 11.3 0.00 0.00 0.00 63 1014.1
20260903165049 33 57 1.6 16.1 0.00 0.00 0.00 63 1014.0
20260903164557 33 61 1.6 16.1 0.00 0.00 0.00 63 1014.0
20260903164047 33 0 1.6 16.1 0.00 0.00 0.00 64 1014.1
20260903163548 33 60 1.6 12.9 0.00 0.00 0.00 64 1014.1
20260903163055 32 57 1.6 16.1 0.00 0.00 0.00 66 1014.3
20260903162547 32 57 3.2 16.1 0.00 0.00 0.00 67 1014.2
20260903162047 32 60 1.6 11.3 0.00 0.00 0.00 67 1014.1
20260903161600 32 59 1.6 9.7 0.00 0.00 0.00 67 1014.2
20260903161048 32 103 0.0 9.7 0.00 0.00 0.00 68 1014.3
20260903160547 32 64 1.6 11.3 0.00 0.00 0.00 69 1014.2
20260903160057 31 54 0.0 11.3 0.00 0.00 0.00 69 1014.2
20260903155546 31 0 3.2 11.3 0.00 0.00 0.00 69 1014.2
20260903155046 31 70 3.2 11.3 0.00 0.00 0.00 70 1014.1
20260903154557 31 0 1.6 11.3 0.00 0.00 0.00 70 1014.2
20260903154047 31 63 3.2 11.3 0.00 0.00 0.00 71 1014.3
20260903153546 31 64 0.0 9.7 0.00 0.00 0.00 71 1014.2
20260903153101 31 0 1.6 9.7 0.00 0.00 0.00 72 1014.3
20260903152546 30 87 0.0 6.4 0.00 0.00 0.00 73 1014.2
20260903152046 30 113 0.0 9.7 0.00 0.00 0.00 73 1014.3
20260903151609 30 68 0.0 9.7 0.00 0.00 0.00 74 1014.3
20260903151048 30 64 1.6 9.7 0.00 0.00 0.00 74 1014.3
20260903150548 30 67 0.0 9.7 0.00 0.00 0.00 74 1014.3
20260903150107 30 54 1.6 6.4 0.00 0.00 0.00 76 1014.3
20260903145546 30 0 1.6 6.4 0.00 0.00 0.00 75 1014.2
20260903145046 29 0 0.0 6.4 0.00 0.00 0.00 76 1014.2
20260903144558 29 120 0.0 11.3 0.00 0.00 0.00 77 1014.3
20260903144047 29 89 1.6 11.3 0.00 0.00 0.00 77 1014.2
20260903143546 29 71 1.6 11.3 0.00 0.00 0.00 78 1014.3
20260903143101 29 76 1.6 12.9 0.00 0.00 0.00 78 1014.2
20260903142546 28 72 3.2 12.9 0.00 0.00 0.00 79 1014.3
20260903142046 28 59 0.0 9.7 0.00 0.00 0.00 79 1014.2
20260903141604 28 57 1.6 9.7 0.00 0.00 0.00 80 1014.1
20260903141050 28 68 1.6 9.7 0.00 0.00 0.00 80 1014.2
20260903140547 28 64 1.6 9.7 0.00 0.00 0.00 80 1014.2
20260903140112 28 0 0.0 12.9 0.00 0.00 0.00 81 1014.3
20260903135546 28 0 1.6 12.9 0.00 0.00 0.00 82 1014.4
20260903135047 28 0 1.6 12.9 0.00 0.00 0.00 82 1014.4
20260903134603 28 0 1.6 9.7 0.00 0.00 0.00 82 1014.4
20260903134046 28 66 1.6 14.5 0.00 0.00 0.00 82 1014.3
20260903133547 27 0 1.6 14.5 0.00 0.00 0.00 83 1014.3
20260903133058 27 67 3.2 14.5 0.00 0.00 0.00 83 1014.2
20260903132548 27 0 0.0 6.4 0.00 0.00 0.00 84 1014.3
20260903132047 27 62 0.0 11.3 0.00 0.00 0.00 84 1014.4
20260903131610 27 0 0.0 11.3 0.00 0.00 0.00 84 1014.4
20260903131047 27 66 1.6 9.7 0.00 0.00 0.00 84 1014.4